31526 UKOR-UKOR

Flight info

Callsign 31526
Flight time 0h 13m
Altitude 2000
Route PATTERN
Aircraft B738/M-S/N

Departure

Time 2026-04-14 16:46
Airport Kulbakyne Air Base (UKOR)

Arrival

Time 2026-04-14 16:59
Airport Kulbakyne Air Base (UKOR)
Time Latitude Longitude Altitude Speed Heading
2026-04-14 16:45 46.92832 32.08209 183 ft 0 kts 54°
2026-04-14 16:45 46.92957 32.08462 183 ft 103 kts 54°
2026-04-14 16:45 46.93670 32.09903 262 ft 233 kts 54°
2026-04-14 16:45 46.94820 32.12230 709 ft 309 kts 53°
2026-04-14 16:46 46.96073 32.14765 1360 ft 308 kts 52°
2026-04-14 16:46 46.97275 32.17364 1860 ft 311 kts 54°
2026-04-14 16:46 46.98475 32.20061 2080 ft 324 kts 53°
2026-04-14 16:46 46.99695 32.22780 2034 ft 317 kts 53°
2026-04-14 16:47 47.00887 32.25467 2003 ft 309 kts 54°
2026-04-14 16:47 47.02017 32.28086 2029 ft 302 kts 55°
2026-04-14 16:47 47.03114 32.30666 1981 ft 290 kts 55°
2026-04-14 16:47 47.04137 32.33107 1970 ft 273 kts 55°
2026-04-14 16:48 47.04562 32.35680 1959 ft 261 kts 101°
2026-04-14 16:48 47.03550 32.37764 1942 ft 259 kts 152°
2026-04-14 16:48 47.01832 32.38001 1975 ft 250 kts 201°
2026-04-14 16:48 47.00480 32.36519 2026 ft 245 kts 233°
2026-04-14 16:49 46.99347 32.34591 1936 ft 254 kts 233°
2026-04-14 16:49 46.98216 32.32598 1911 ft 255 kts 233°
2026-04-14 16:49 46.97082 32.30603 1916 ft 255 kts 234°
2026-04-14 16:49 46.95987 32.28588 1965 ft 252 kts 235°
2026-04-14 16:50 46.94900 32.26588 2036 ft 249 kts 235°
2026-04-14 16:50 46.93818 32.24590 2002 ft 251 kts 236°
2026-04-14 16:50 46.92745 32.22576 1969 ft 253 kts 236°
2026-04-14 16:50 46.91651 32.20561 1980 ft 253 kts 234°
2026-04-14 16:51 46.90550 32.18565 1990 ft 253 kts 234°
2026-04-14 16:51 46.89444 32.16566 2001 ft 252 kts 235°
2026-04-14 16:51 46.88345 32.14567 2010 ft 252 kts 234°
2026-04-14 16:51 46.87244 32.12583 2044 ft 250 kts 234°
2026-04-14 16:52 46.86163 32.10633 2039 ft 245 kts 234°
2026-04-14 16:52 46.85095 32.08701 1925 ft 244 kts 234°
2026-04-14 16:52 46.84025 32.06785 1854 ft 242 kts 234°
2026-04-14 16:52 46.82961 32.04908 1817 ft 239 kts 234°
2026-04-14 16:53 46.81909 32.03055 1775 ft 236 kts 234°
2026-04-14 16:53 46.80876 32.01255 1860 ft 226 kts 234°
2026-04-14 16:53 46.79872 31.99518 1902 ft 223 kts 233°
2026-04-14 16:53 46.78859 31.97796 1983 ft 226 kts 233°
2026-04-14 16:54 46.77849 31.96080 1955 ft 208 kts 233°
2026-04-14 16:54 46.77021 31.94522 2006 ft 193 kts 250°
2026-04-14 16:54 46.76529 31.92667 2050 ft 198 kts 270°
2026-04-14 16:54 46.76978 31.90877 2128 ft 192 kts 313°
2026-04-14 16:55 46.78133 31.89877 2124 ft 200 kts 345°
2026-04-14 16:55 46.79515 31.89797 2275 ft 201 kts
2026-04-14 16:55 46.80436 31.90108 2255 ft 208 kts 14°
2026-04-14 16:55 46.81813 31.90835 2294 ft 211 kts 18°
2026-04-14 16:56 46.83175 31.91566 2437 ft 209 kts 17°
2026-04-14 16:56 46.84499 31.92322 2380 ft 199 kts 23°
2026-04-14 16:56 46.85572 31.93615 2070 ft 205 kts 47°
2026-04-14 16:56 46.86305 31.95391 1873 ft 201 kts 54°
2026-04-14 16:57 46.87078 31.97004 1877 ft 188 kts 50°
2026-04-14 16:57 46.87827 31.98516 1881 ft 182 kts 50°
2026-04-14 16:57 46.88544 32.00042 1807 ft 181 kts 49°
2026-04-14 16:57 46.89256 32.01543 1795 ft 177 kts 52°
2026-04-14 16:58 46.90013 32.02915 1665 ft 168 kts 42°
2026-04-14 16:58 46.90796 32.04110 1260 ft 160 kts 44°
2026-04-14 16:58 46.91434 32.05399 787 ft 161 kts 52°
2026-04-14 16:58 46.92117 32.06774 395 ft 179 kts 54°
2026-04-14 16:59 46.92878 32.08300 206 ft 168 kts 54°
2026-04-14 16:59 46.93448 32.09443 183 ft 106 kts 54°
2026-04-14 16:59 46.93658 32.09864 183 ft 34 kts 53°
2026-04-14 16:59 46.93778 32.10113 183 ft 26 kts 55°